Temp
3 3 3 3 3 4 4 4 4 6 6 5 6 6 7 9 10 11 11 11 11 12 13 13 14 14 15 14 16 16 18 17 17 18 19 20 20 21 21 20 18 17 18 21
3 3 3 3 3 4 4 4 5 5 5 6 6 6 7 8 9 10 10 11 10 12 12 12 13 13 14 14 15 15 16 16 16 17 19 19 19 20 19 18 17 20 19 21
3 3 3 3 3 3 3 4 4 5 5 6 6 6 6 7 8 9 9 9 10 11 11 12 12 12 14 13 15 14 15 16 16 17 17 17 18 19 20 20 18 19 19 21
3 3 3 3 3 4 3 3 4 5 5 5 5 7 8 8 8 9 9 9 10 10 10 11 11 13 12 14 13 15 15 14 15 15 16 16 16 17 19 19 19 19 20 20
2 3 3 3 3 3 3 3 4 5 5 6 5 6 8 8 8 9 9 9 9 10 10 11 11 11 12 12 13 13 13 14 14 15 16 16 17 17 18 18 19 19 19 20
2 3 2 3 3 3 3 3 3 5 6 6 6 7 8 8 9 9 10 9 9 9 9 10 10 10 11 11 11 11 12 13 13 15 13 15 16 16 17 18 19 19 18 20
2 2 3 3 3 3 3 3 4 4 5 6 7 7 8 8 9 8 9 10 9 10 10 10 10 9 9 10 10 11 11 12 11 13 13 14 17 16 17 17 18 18 18 18
3 3 3 3 3 3 3 3 4 5 5 6 6 7 8 9 9 8 8 9 9 10 9 9 9 10 10 10 10 10 11 11 11 13 14 15 17 17 16 16 18 14 15 16
3 3 3 2 3 3 3 3 3 5 6 6 8 7 8 8 7 7 8 9 9 10 7 7 9 10 11 12 12 11 11 11 12 11 12 13 16 16 15 15 16 15 15 15
3 3 3 3 3 3 3 3 3 4 4 6 7 8 7 9 8 7 7 8 7 9 7 8 9 10 10 11 11 11 10 11 11 11 12 14 14 15 15 16 16 15 14 15
4 3 3 3 3 3 3 3 3 4 3 5 8 9 8 8 8 7 7 7 6 6 7 8 8 9 10 11 12 12 12 12 12 12 12 12 14 15 15 15 15 14 15 15
4 4 4 4 3 4 3 4 4 3 4 4 6 7 9 10 10 9 8 9 7 7 8 7 9 8 7 11 12 10 12 12 13 13 13 13 13 13 12 12 12 13 13 14
4 4 4 4 4 3 3 3 4 4 4 4 4 5 7 9 10 11 8 8 9 7 8 7 8 9 8 10 10 12 12 11 12 12 13 13 13 12 11 11 11 10 10 11
4 4 4 4 4 3 2 3 3 4 4 5 5 7 6 8 9 9 9 9 8 8 8 8 7 9 9 9 11 11 12 11 12 11 12 12 11 9 8 9 9 8 8 7
5 4 4 4 4 3 2 3 3 3 5 5 5 6 7 7 7 8 8 9 9 9 8 6 9 8 9 8 8 10 10 10 11 12 8 8 9 10 7 7 7 6 6 5
5 5 4 4 4 3 2 2 3 3 4 5 6 5 6 6 7 8 8 9 9 9 9 7 8 8 10 8 9 9 8 7 6 7 7 7 8 7 5 5 5 4 3 2
5 4 4 4 4 3 4 4 4 3 4 4 5 6 6 7 7 6 7 7 8 8 8 8 9 9 9 8 9 6 5 4 5 6 5 8 7 5 4 3 3 2 1 -0
5 4 4 4 4 3 4 4 3 4 4 4 5 6 6 7 6 6 7 7 7 7 7 6 8 8 8 7 3 3 3 3 4 3 3 4 5 4 2 2 2 1 -1 -1
4 4 4 2 1 3 4 3 3 5 4 5 4 6 7 6 6 6 6 7 6 5 6 6 7 7 7 1 1 1 1 1 1 2 3 3 3 1 0 -0 -1 -1 -2 -2
3 3 3 2 2 3 4 3 3 4 4 5 4 4 6 6 5 5 5 5 6 7 6 4 4 1 -1 -1 -0 -1 -1 -0 0 1 2 0 0 -0 -2 -2 -3 -3 -4 -4
4 3 4 4 4 4 4 4 4 3 4 4 5 4 5 3 6 6 5 6 6 7 6 7 4 1 -1 -1 -2 -2 -2 -2 -2 -1 -2 -2 -2 -2 -3 -4 -4 -5 -6 -6
4 3 2 1 1 3 4 4 3 4 5 4 5 4 4 4 4 5 5 6 6 6 2 3 0 -1 -2 -2 -3 -3 -3 -3 -3 -3 -4 -4 -4 -5 -5 -5 -6 -7 -8 -9
5 2 -0 2 -2 -1 1 3 2 2 1 2 4 5 4 4 5 5 6 6 3 2 0 -1 -2 -3 -3 -3 -3 -4 -4 -5 -5 -5 -6 -6 -6 -7 -7 -7 -8 -9 -9 -9
-0 -1 -3 -4 -3 -2 -2 -2 -2 -0 0 1 3 3 3 2 3 2 4 -0 0 -1 -1 -3 -3 -4 -4 -4 -4 -5 -6 -6 -6 -7 -7 -7 -8 -8 -8 -8 -9 -10 -10 -10
-2 -2 -4 -4 -4 -4 -3 -3 -2 -1 -1 1 2 -0 1 -1 -1 -1 0 -1 -2 -2 -3 -4 -5 -5 -5 -5 -5 -6 -6 -6 -7 -7 -8 -8 -9 -9 -9 -10 -10 -10 -10 -10
-4 -5 -5 -6 -5 -5 -5 -4 -3 -2 -2 -0 -0 -1 -2 -3 -3 -3 -3 -1 -3 -5 -5 -5 -6 -6 -6 -7 -7 -7 -7 -7 -7 -8 -8 -9 -9 -9 -10 -10 -11 -11 -11 -12
-4 -6 -7 -8 -7 -6 -5 -5 -4 -3 -1 -2 -1 -2 -1 -1 -4 -5 -5 -5 -6 -7 -6 -6 -7 -7 -7 -7 -8 -8 -8 -8 -8 -8 -9 -9 -10 -10 -10 -10 -11 -11 -12 -12
Height
761 763 766 769 771 774 778 779 776 767 768 775 771 766 765 760 756 755 755 752 750 745 738 733 727 725 721 718 710 709 704 713 720 711 702 701 704 706 708 719 732 735 735 717
754 756 759 763 765 770 774 772 768 766 768 764 764 763 762 758 756 753 753 752 753 747 744 740 733 731 722 720 714 717 711 714 723 718 708 706 707 705 708 717 723 718 728 716
746 749 752 756 759 764 770 768 762 761 761 757 758 755 759 758 755 755 756 757 753 750 749 741 737 735 727 724 719 716 713 716 716 718 718 717 714 707 703 704 722 718 716 709
737 741 745 749 753 757 764 758 754 753 750 753 753 747 746 749 750 750 752 754 753 750 751 747 740 732 731 725 724 719 719 725 721 719 716 717 716 711 705 708 705 710 705 708
728 732 736 740 745 749 755 750 748 749 745 744 748 747 739 740 746 744 750 752 749 748 749 743 741 741 736 734 730 728 728 724 726 721 715 712 711 705 703 703 704 705 704 701
717 721 726 730 735 742 742 743 744 745 736 740 738 734 733 734 738 743 742 747 749 750 747 746 744 744 742 740 743 740 735 731 729 721 725 715 715 708 704 701 700 701 708 697
703 708 713 718 723 729 735 733 737 739 733 734 731 731 733 733 734 739 742 741 746 745 745 743 738 740 739 739 739 737 737 733 735 725 726 724 701 700 699 701 699 699 699 699
688 693 699 705 711 716 721 726 728 729 728 726 730 727 727 729 733 736 740 741 747 746 746 746 737 733 731 729 730 733 733 735 733 726 719 715 697 699 702 704 701 708 705 700
673 679 685 690 697 704 711 715 721 722 721 713 720 726 723 724 734 741 739 741 745 744 753 750 740 733 725 720 719 724 731 732 731 734 724 720 703 698 701 703 707 705 702 700
660 665 671 677 684 692 700 703 712 720 716 709 711 713 719 721 727 733 735 739 743 742 748 744 739 732 728 722 721 720 730 732 731 729 721 711 703 700 700 704 706 699 700 696
651 655 660 666 673 680 688 695 701 709 713 708 703 703 707 714 718 726 731 739 742 745 743 741 739 737 726 723 716 712 717 720 720 721 723 722 703 703 706 704 701 701 696 693
641 647 653 659 665 669 680 686 693 703 709 706 703 702 701 701 706 717 723 720 727 731 734 737 730 733 738 721 716 720 715 711 710 712 709 707 707 708 710 708 705 701 700 691
631 639 645 652 659 665 672 679 686 697 702 706 705 701 701 702 706 710 719 720 719 723 723 728 728 724 728 722 718 711 710 713 711 711 705 706 706 709 711 709 706 705 704 696
623 630 638 646 654 662 667 674 679 689 696 697 694 695 699 701 705 709 712 713 718 720 722 724 726 720 721 720 714 715 709 712 708 709 705 704 708 714 716 710 709 706 703 701
614 622 632 641 650 660 668 674 678 683 689 689 693 693 693 697 703 706 709 712 716 716 718 725 720 722 720 724 721 712 714 712 709 704 722 721 714 713 718 716 714 713 709 702
609 618 626 636 647 659 667 676 679 682 686 688 687 689 689 695 699 703 706 710 712 715 715 723 717 715 715 721 715 716 718 722 726 724 725 723 720 719 722 721 719 718 717 713
605 613 625 634 645 654 663 665 665 677 686 688 688 688 689 693 699 703 705 708 709 713 714 713 713 712 713 715 708 723 728 729 728 727 726 718 720 722 724 724 723 722 721 715
605 615 626 635 644 658 664 663 667 677 683 687 685 686 687 691 697 700 704 707 708 709 710 714 707 711 715 716 732 733 735 734 730 733 732 729 724 725 727 726 724 723 723 721
610 619 629 637 648 657 661 664 673 678 683 679 683 679 681 689 693 699 704 703 706 711 709 712 705 708 711 740 742 742 742 742 739 736 731 729 726 728 730 730 730 728 726 726
616 625 635 644 650 655 664 674 677 678 680 680 682 683 681 685 692 700 704 707 706 701 705 713 714 736 746 747 748 748 747 744 741 737 732 733 731 733 735 735 736 735 735 736
622 630 637 647 654 657 665 671 675 681 682 680 680 683 682 693 687 691 699 697 700 697 705 702 719 737 748 750 751 749 747 746 745 742 741 740 739 738 738 740 740 743 744 743
627 632 648 653 660 661 665 670 676 672 670 677 676 679 681 684 686 688 695 692 697 698 720 720 738 749 753 752 752 752 750 749 748 747 746 745 743 743 743 746 746 748 750 750
633 642 656 660 675 682 679 676 680 681 684 680 674 675 681 685 685 688 687 690 713 723 733 744 752 757 756 756 755 755 755 754 753 752 752 750 750 750 750 752 752 754 756 755
649 664 687 695 701 698 699 699 697 691 687 684 676 681 684 691 691 702 701 727 727 738 743 755 760 761 762 761 760 759 760 760 759 759 759 758 757 757 758 758 760 761 762 763
671 680 701 707 708 706 704 702 697 695 692 685 685 694 695 710 716 720 723 733 747 748 755 762 765 767 767 766 765 764 764 764 765 766 765 765 765 765 766 767 767 768 769 769
688 703 708 712 710 710 709 706 700 698 694 690 693 703 715 729 732 737 747 739 750 762 766 769 770 771 771 771 771 770 770 770 770 771 772 772 772 772 774 774 775 775 775 776
704 717 719 721 719 719 715 711 706 703 698 706 706 716 723 728 742 755 757 762 767 770 771 773 774 775 776 776 776 777 777 777 777 778 778 778 779 779 779 779 782 782 783 783
Wind_Speed
24 19 18 17 18 16 9 3 4 5 22 6 2 3 7 6 4 2 4 2 4 3 5 5 6 7 6 10 13 3 3 2 3 4 2 4 4 8 10 5 5 1 1 8
25 21 19 19 20 15 5 3 3 8 13 6 10 3 5 5 5 4 0 1 2 2 3 4 4 5 7 13 10 6 5 3 2 4 3 2 5 5 4 2 1 12 7 4
27 23 21 21 22 19 15 3 3 4 6 6 11 8 7 6 5 4 4 3 2 3 3 2 4 4 6 9 6 10 3 2 1 4 3 3 2 3 9 11 4 5 6 7
27 25 24 23 25 23 13 4 4 4 4 11 11 14 12 13 8 7 3 4 11 6 5 4 5 6 5 8 9 5 5 2 4 5 4 3 3 8 9 9 11 10 9 9
28 28 28 29 29 26 17 3 4 4 6 4 16 12 13 14 11 8 4 7 2 7 7 6 4 5 4 3 7 7 8 1 1 2 4 2 6 8 6 6 4 7 10 10
35 33 33 33 32 28 11 12 6 3 6 6 7 5 12 15 12 4 11 5 6 9 11 7 10 9 9 10 7 5 4 1 1 2 4 5 1 2 1 1 1 3 4 10
39 38 38 37 37 36 26 6 6 5 9 9 11 10 12 13 18 12 8 11 12 1 4 9 7 7 10 11 11 9 5 2 2 1 4 2 2 1 4 3 1 4 2 9
43 42 42 40 39 39 33 18 8 5 7 10 11 13 14 12 7 15 14 9 3 2 1 3 5 2 2 7 11 14 12 4 2 2 5 4 8 2 3 3 3 9 7 10
42 40 40 40 39 39 36 29 27 4 7 14 13 11 15 11 9 6 9 4 7 5 3 2 3 2 2 1 3 6 11 9 3 3 3 6 4 2 3 6 2 3 6 9
33 37 39 39 40 40 39 16 35 13 3 3 14 11 7 7 8 3 4 5 5 6 4 3 3 2 2 2 1 3 5 4 10 2 4 4 5 4 4 3 3 9 3 6
28 25 29 33 33 40 38 30 36 26 2 4 10 11 9 8 9 5 5 4 2 3 5 3 3 3 3 1 2 3 6 7 4 4 4 5 2 2 3 6 5 6 9 9
29 28 28 26 24 30 38 11 33 37 5 3 6 9 15 28 21 7 9 5 4 5 3 4 3 3 1 4 2 1 2 4 3 6 4 1 1 1 4 6 8 7 13 18
31 31 28 28 27 23 38 15 28 25 5 5 6 5 11 16 20 21 6 2 4 3 2 3 2 3 3 3 4 1 2 3 2 0 0 3 1 4 8 9 9 11 12 16
27 35 30 29 30 23 19 22 22 18 3 2 3 17 9 25 14 18 17 4 5 2 2 1 2 2 3 2 1 3 2 2 2 3 4 5 7 10 9 13 12 13 12 12
26 35 31 33 31 30 21 19 23 18 2 3 2 6 12 24 23 18 16 9 5 1 1 1 2 1 2 1 0 3 1 2 2 2 4 4 7 11 10 10 12 12 12 13
29 29 29 34 33 37 19 2 20 23 8 1 3 1 6 13 18 16 10 9 7 6 3 2 2 2 2 2 2 2 3 4 5 3 9 7 9 2 9 9 11 10 9 11
29 30 30 33 39 36 6 4 15 29 14 2 2 3 2 14 6 2 2 2 3 4 3 4 4 2 2 2 5 3 6 8 7 6 8 3 6 4 8 8 8 6 6 12
31 30 32 32 41 24 3 5 33 30 5 1 2 2 3 7 3 3 2 2 3 3 1 1 4 4 1 3 6 6 8 11 4 11 10 10 10 6 9 9 9 8 8 8
32 35 34 27 8 3 6 26 35 10 5 3 2 4 4 4 2 3 2 1 1 1 3 2 2 3 2 6 6 7 7 7 10 12 11 8 8 7 9 10 10 7 8 9
44 26 5 3 5 37 33 7 2 1 1 1 1 1 2 3 2 2 4 2 3 3 2 3 2 3 6 7 7 6 7 8 9 8 5 9 8 7 8 9 8 8 7 6
4 2 3 34 24 5 2 3 2 2 2 3 2 3 3 1 4 3 1 3 3 4 1 2 2 2 3 6 7 8 8 7 7 6 6 6 5 6 7 9 11 12 12 10
12 19 10 5 4 2 5 2 2 3 2 2 3 3 3 3 2 2 2 2 2 2 2 3 2 3 6 7 8 9 8 7 8 10 9 11 12 13 12 11 14 16 16 17
9 6 4 4 5 8 3 2 1 1 4 2 2 3 2 2 1 2 2 3 3 2 3 2 3 4 6 6 6 8 10 11 12 12 15 17 19 19 18 17 18 19 19 19
5 4 6 4 4 3 2 1 1 2 3 5 2 3 3 3 4 2 4 2 2 3 2 2 2 5 5 6 6 8 10 10 12 11 15 16 17 18 20 20 19 20 20 20
5 5 5 4 2 2 3 2 1 3 4 2 2 3 3 4 5 4 3 3 3 2 2 1 2 4 5 7 8 8 9 9 10 13 14 15 17 19 20 21 21 21 20 20
4 6 3 3 2 4 3 4 3 4 4 2 3 3 4 5 2 4 3 2 2 3 2 3 4 6 7 8 8 9 12 13 14 16 16 17 18 18 19 21 21 21 20 20
5 3 2 1 2 1 3 3 4 4 2 2 3 5 5 3 3 3 3 2 2 4 4 5 7 8 8 8 11 12 13 14 14 15 15 16 15 16 17 18 17 18 19 20
Wind_Direction
259 254 256 261 261 259 270 242 242 205 174 204 203 227 171 188 246 196 252 293 248 283 325 321 0 2 11 13 339 62 210 106 216 222 148 144 223 217 201 211 188 192 226 236
255 248 251 252 251 245 212 221 241 225 198 224 219 172 198 206 219 190 304 273 41 337 312 318 5 326 310 8 19 11 331 204 225 332 316 94 200 199 170 131 118 226 236 251
253 247 249 248 245 244 223 218 236 204 204 230 232 202 203 209 201 243 251 303 310 324 329 315 297 315 317 350 354 334 271 60 171 196 71 319 277 227 215 204 181 212 230 246
252 248 247 244 242 241 221 212 210 194 198 223 219 200 184 191 178 198 204 227 224 221 263 274 268 288 341 331 10 23 21 55 317 312 293 45 314 282 257 226 236 231 245 218
251 248 245 245 241 240 224 227 188 186 253 239 205 204 207 200 190 172 199 220 146 187 220 226 303 7 6 309 356 15 356 148 258 270 311 308 305 311 269 234 235 241 247 245
251 247 244 243 236 228 224 207 201 251 234 220 214 193 194 207 178 225 208 191 249 247 262 265 264 258 249 258 296 324 313 211 234 242 322 301 223 200 353 2 253 262 282 285
245 243 240 238 234 226 221 193 153 209 237 225 220 220 204 200 203 192 230 220 235 266 334 318 272 240 241 241 241 211 254 302 196 237 329 265 246 172 223 234 218 11 344 356
241 239 237 236 234 229 219 208 209 190 233 223 234 215 201 209 197 208 206 186 191 189 267 294 304 301 208 226 222 203 203 215 249 224 199 309 308 72 102 91 341 37 27 2
239 238 236 233 230 227 221 216 201 226 212 218 201 212 209 194 190 201 226 182 226 194 210 242 232 266 291 306 157 187 183 208 252 171 206 213 234 222 218 154 280 11 25 7
240 237 236 234 232 226 216 210 206 210 253 217 183 196 188 180 160 183 148 198 203 181 176 240 203 242 272 286 331 140 153 188 220 174 239 279 261 296 316 224 345 331 303 323
235 234 231 229 228 223 209 209 194 197 175 241 202 188 167 163 174 169 161 109 149 151 178 199 189 195 237 248 233 181 171 179 187 198 230 263 244 357 8 342 316 289 299 287
235 227 219 218 223 210 204 198 192 195 206 287 240 241 212 186 178 166 172 179 147 161 155 196 193 204 196 194 229 128 225 193 190 201 202 280 47 16 25 358 304 313 311 302
227 223 219 213 210 215 200 176 168 178 191 258 248 239 230 202 206 190 177 242 143 208 192 157 177 211 148 174 238 257 248 168 209 178 143 203 267 79 18 354 345 340 351 323
223 216 215 207 196 195 155 167 171 164 129 225 197 210 202 216 222 206 211 158 147 96 160 171 151 195 190 209 265 215 237 166 213 262 269 312 121 50 6 345 349 350 354 7
216 206 206 203 189 182 163 164 168 144 141 150 168 166 210 202 208 219 216 190 187 218 168 127 221 180 179 189 303 231 162 302 235 286 24 325 307 335 6 347 348 347 346 8
199 194 192 189 181 166 139 126 185 203 189 127 149 296 165 165 183 191 196 213 212 219 202 231 241 275 130 248 225 157 96 75 53 327 326 289 301 9 20 354 346 354 4 27
188 185 182 179 169 157 152 183 175 176 170 140 138 155 147 157 130 128 159 203 205 213 216 216 209 221 200 177 249 99 10 350 348 360 343 284 19 336 4 1 355 6 32 58
169 170 170 173 153 147 179 86 155 155 110 192 161 157 111 149 143 142 158 200 155 175 150 238 188 164 162 231 64 30 8 347 347 354 341 303 292 26 16 14 10 21 19 23
150 150 132 111 102 127 154 153 148 127 193 160 101 149 149 164 108 119 81 109 113 59 194 221 200 139 187 47 33 18 5 346 324 330 320 10 45 36 24 25 24 32 36 41
119 111 90 98 162 122 116 98 124 85 11 126 181 105 138 136 134 122 144 141 191 195 178 100 69 69 80 33 31 3 347 342 340 334 343 358 18 36 42 45 39 41 54 55
77 73 66 121 127 118 90 105 123 131 168 185 161 187 135 167 150 133 188 157 162 179 140 200 98 97 40 18 20 9 7 5 6 16 40 40 47 60 65 60 62 57 63 68
100 111 92 60 29 71 100 128 127 188 176 137 169 159 149 150 132 120 162 121 149 145 17 76 100 65 23 22 24 21 27 37 48 51 60 62 66 70 76 76 76 71 69 71
83 61 64 21 338 52 60 110 41 74 346 335 159 122 96 108 56 82 103 81 71 84 49 79 49 26 21 27 36 49 55 62 64 64 70 74 74 73 79 78 73 77 72 70
55 55 48 60 12 40 36 310 265 320 321 338 27 68 56 353 60 0 81 49 69 77 89 95 52 57 56 57 66 72 63 62 65 64 67 68 71 70 67 69 78 80 75 74
57 41 57 61 344 352 333 298 290 344 301 344 63 53 56 28 72 27 103 58 75 49 131 100 79 69 75 68 68 70 69 67 64 64 69 69 71 72 69 68 75 78 79 78
70 47 40 346 51 352 359 351 358 356 346 9 38 80 60 44 69 55 31 97 121 142 104 116 101 78 70 70 64 60 64 72 74 73 73 73 72 75 78 73 70 71 73 72
48 37 31 53 87 317 323 334 333 312 11 56 52 59 56 95 68 61 22 82 130 123 94 74 68 74 70 66 63 61 65 66 66 70 72 75 77 81 79 76 70 75 76 77